Location: Lake Mineral Wells State Park
(32.8157°N, 98.0290°W)
Time: 15:17:19
(UTC-06:00)

Envisat - Pass Details

Date: 24 October 2019
Orbit: 764 x 766 km, 98.1° (Epoch: 19 November)

Event Time Altitude Azimuth Distance (km) Brightness Sun altitude
Rises 07:09:40 0° 36° (NE) 3,232 6.6 -7.7°
Reaches altitude 10° 07:13:04 10° 60° (ENE) 2,301 6.3 -7.0°
Maximum altitude 07:15:48 15° 93° (E) 1,996 6.7 -6.5°
Drops below altitude 10° 07:18:32 10° 126° (SE) 2,293 6.7 -5.9°
Sets 07:21:54 0° 150° (SSE) 3,213 6.9 -5.2°
